Погода в Пяндже

Таджикистан     37˚14′08″N   69˚05′58″E
темп.,
°C
ветер,
м/с
пор.,
м/с
влажн.,
%
обл.,
%
осадки,
мм/ч
давл.,
гПа
погр.,
м
6 декабря, вс
вс623:00+6˚ююв016133 0.0 102922
02:00+5˚ююз016098 0.0 102922
05:00+4˚ююз016098 0.0 102922
08:00+4˚юз005994 0.0 103022
11:00+8˚сз114965 0.0 1027414
14:00+10˚з22511 0.0 1024733
17:00+9˚юз225951 0.0 102447
20:00+8˚сз1162100 0.0 102422
7 декабря, пн
пн723:00+7˚сз1166100 0.0 102222
02:00+7˚юз1167100 0.0 102022
05:00+7˚юз1169100 0.0 102022
08:00+7˚ююв1267100 0.0 102342
11:00+7˚ююз1273100 0.8 1024265
14:00+7˚юз1278100 0.8 1023228
17:00+6˚ююз2381100 1.0 1023261
20:00+6˚ююз2478100 0.2 1025324
8 декабря, вт
вт823:00+6˚ююз2382100 0.4 1026302
02:00+5˚юз1186100 0.3 1026192
05:00+5˚зюз2284100 0.6 1025166
08:00+4˚юз4584100 0.9 1026300
11:00+2˚ююз2392100 4.7 1027228
14:00+1˚ююз4689100 1.1 1027328
17:00+1˚юз3594100 1.8 1029311
20:00юз4695100 0.3 1031334
9 декабря, ср
ср923:00ююз3497100 2.3 1032261
02:00юз2395100 0.6 1032247
05:00юз1193100 0.8 1031152
08:00−1˚з119392 0.0 103157
11:00+2˚з118570 0.0 1029281
14:00+4˚зюз118090 0.0 1026345
17:00+3˚юз128572 0.0 102659
20:00+2˚зюз228994 0.0 102781
10 декабря, чт
чт1023:00+2˚зюз118997 0.0 102793
02:00+3˚зюз1188100 0.0 1027146
05:00+2˚з2289100 0.0 1027179
08:00+2˚з2288100 0.0 1029168
11:00+3˚зсз2283100 0.0 1028269
14:00+4˚з2177100 0.0 1027411
17:00+4˚зюз128087 0.0 1028110
20:00+3˚юз008752 0.0 102922